"SCET";"TARGET";"ELECTRON_DENSITY";"ERROR_FLAG";"ELECTRON_DENSITY_ERROR";"FREQ_FCE";"MEASURED_VALUE";"MEASURED_ITEM";"FREQ_PLASMA";"FREQ_UPPER_HYBRID";"FREQ_R_EQUALS_ZERO";"FREQ_L_EQUALS_ZERO";"ORBIT_NUMBER";"SATURN_RADIUS";"SATURN_IAU_LONGITUDE";"SATURN_SLS4_S_LONGITUDE";"SATURN_SLS4_N_LONGITUDE";"SATURN_SLS5_S_LONGITUDE";"SATURN_SLS5_N_LONGITUDE";"SATURN_LOCAL_TIME";"SATURN_KRONOGRAPHIC_LATITUDE";"SATURN_MAGNETIC_LATITUDE";"SATURN_L";"SATURN_L_OFFSET";"SATURN_SOLAR_EQUATORIAL_X";"SATURN_SOLAR_EQUATORIAL_Y";"SATURN_SOLAR_EQUATORIAL_Z";"SATURN_ALTITUDE";"ENCELADUS_ENCOUNTER_NUMBER";"ENCELADUS_RADIUS";"ENCELADUS_COROTATIONAL_X";"ENCELADUS_COROTATIONAL_Y";"ENCELADUS_COROTATIONAL_Z";"ENCELADUS_TRUE_ANOMALY";"ENCELADUS_PERIAPSIS_TIME";"JUPITER_RADIUS";"JUPITER_SYSTEMIII_LONGITUDE";"JUPITER_MAGNETIC_LATITUDE";"JUPITER_MAGNETIC_LOCAL_TIME";"JUPITER_L";"IO_PHASE";"EARTH_RADIUS";"EARTH_MAGNETIC_LATITUDE";"EARTH_LOCAL_TIME";"EARTH_L"
"[UTC]";"[0=Saturn, 1=Enceladus, 2=Jupiter, 3=Earth]";"[cm-3]";"[0=automated, 1=manual]";"[normalized density error]";"[Hz]";"[Hz]";"[0=upper hybrid frequency, 1=plasma frequency cutoff]";"[Hz]";"[Hz]";"[Hz]";"[Hz}";"[0, A, B, C, 3, 4, ... , 292, 293]";"[Rs where 1Rs=60268km]";"[degrees]";"[degrees]";"[degrees]";"[degrees]";"[degrees]";"[hours]";"[degrees]";"[degrees where offset=2293km north]";"[Rs where 1Rs=60268km]";"[Rs where 1Rs=60268km and offset=2293km north]";"[Rs where 1Rs=60268km]";"[Rs where 1Rs=60268km]";"[Rs where 1Rs=60268km]";"[km where ellipsoid a,b=60268km and c=54364km]";"[E0, E1, E2, ... , E21, E22]";"[Renc where 1Renc=252.1km]";"[Renc where 1Renc=252.1km]";"[Renc where 1Renc=252.1km]";"[Renc where 1Renc=252.1km]";"[degrees]";"[UTC]";"[Rj where 1Rj=71492km]";"[degrees]";"[degrees using JRM09 model]";"[hours using JRM09 model]";"[Rj where 1Rj=71492km]";"[degrees]";"[Re where 1Re=6378.1366km]";"[degrees]";"[hours]";"[Re where 1Re=6378.1366km]"
2016-03-09T14:10:56.819Z;0;1.5920e+01;0;     0.149;  1038.072;  35841.242; 0;  35826.207;  35841.242;  36349.000;  35310.930;233;   7.497; 154.793;;; 309.082; 262.077;  14.155;   1.290;   0.999;   7.501;   7.489;   6.334;   4.008;   0.169;;;;;;;;;;;;;;;;;;
2016-03-09T14:11:04.819Z;0;1.6110e+01;0;     0.159;  1033.312;  36062.473; 0;  36047.664;  36062.473;  36568.023;  35534.711;233;   7.497; 154.858;;; 309.147; 262.141;  14.155;   1.286;   0.995;   7.501;   7.488;   6.333;   4.009;   0.168;;;;;;;;;;;;;;;;;;
2016-03-09T14:11:12.819Z;0;1.5920e+01;0;     0.147;  1033.312;  35848.508; 0;  35833.613;  35848.508;  36353.992;  35320.680;233;   7.496; 154.922;;; 309.211; 262.204;  14.156;   1.282;   0.991;   7.500;   7.488;   6.332;   4.010;   0.168;;;;;;;;;;;;;;;;;;
2016-03-09T14:11:20.819Z;0;1.6850e+01;0;     0.141;  1033.312;  36874.633; 0;  36860.152;  36874.633;  37380.430;  36347.117;233;   7.496; 154.987;;; 309.275; 262.268;  14.157;   1.278;   0.987;   7.499;   7.487;   6.330;   4.010;   0.167;;;;;;;;;;;;;;;;;;
2016-03-09T14:11:28.819Z;0;1.6920e+01;0;     0.144;  1033.312;  36957.562; 0;  36943.113;  36957.562;  37463.383;  36430.070;233;   7.495; 155.052;;; 309.340; 262.331;  14.158;   1.273;   0.983;   7.499;   7.486;   6.329;   4.011;   0.166;;;;;;;;;;;;;;;;;;
2016-03-09T14:11:36.819Z;0;1.5930e+01;0;     0.128;  1033.312;  35852.680; 0;  35837.785;  35852.680;  36358.164;  35324.855;233;   7.494; 155.117;;; 309.404; 262.395;  14.158;   1.269;   0.978;   7.498;   7.486;   6.328;   4.012;   0.166;;;;;;;;;;;;;;;;;;
2016-03-09T14:11:44.819Z;0;1.7430e+01;0;     0.135;  1033.312;  37503.133; 0;  37488.895;  37503.133;  38009.109;  36975.801;233;   7.494; 155.181;;; 309.468; 262.458;  14.159;   1.265;   0.974;   7.497;   7.485;   6.327;   4.013;   0.165;;;;;;;;;;;;;;;;;;
2016-03-09T14:11:52.819Z;0;1.7530e+01;0;     0.121;  1033.312;  37611.414; 0;  37597.219;  37611.414;  38117.422;  37084.109;233;   7.493; 155.246;;; 309.533; 262.521;  14.160;   1.261;   0.970;   7.497;   7.484;   6.325;   4.014;   0.165;;;;;;;;;;;;;;;;;;
2016-03-09T14:12:00.819Z;0;1.7430e+01;0;     0.124;  1042.748;  37499.992; 0;  37485.492;  37499.992;  38010.492;  36967.742;233;   7.492; 155.311;;; 309.597; 262.585;  14.160;   1.257;   0.966;   7.496;   7.484;   6.324;   4.014;   0.164;;;;;;;;;;;;;;;;;;
2016-03-09T14:12:08.819Z;0;1.7080e+01;0;     0.135;  1042.748;  37126.738; 0;  37112.094;  37126.738;  37637.129;  36594.379;233;   7.492; 155.375;;; 309.661; 262.648;  14.161;   1.253;   0.962;   7.495;   7.483;   6.323;   4.015;   0.164;;;;;;;;;;;;;;;;;;
2016-03-09T14:12:16.819Z;0;1.6680e+01;0;     0.131;  1042.748;  36688.211; 0;  36673.391;  36688.211;  37198.469;  36155.723;233;   7.491; 155.440;;; 309.726; 262.712;  14.162;   1.248;   0.958;   7.495;   7.483;   6.322;   4.016;   0.163;;;;;;;;;;;;;;;;;;
2016-03-09T14:12:24.819Z;0;1.6800e+01;0;     0.126;  1042.748;  36825.766; 0;  36811.000;  36825.766;  37336.066;  36293.316;233;   7.490; 155.505;;; 309.790; 262.775;  14.162;   1.244;   0.953;   7.494;   7.482;   6.320;   4.017;   0.163;;;;;;;;;;;;;;;;;;
2016-03-09T14:12:32.819Z;0;1.6910e+01;0;     0.134;  1042.748;  36942.805; 0;  36928.086;  36942.805;  37453.141;  36410.391;233;   7.490; 155.570;;; 309.854; 262.838;  14.163;   1.240;   0.949;   7.493;   7.481;   6.319;   4.018;   0.162;;;;;;;;;;;;;;;;;;
2016-03-09T14:12:40.818Z;0;1.7040e+01;0;     0.120;  1042.748;  37084.262; 0;  37069.598;  37084.262;  37594.641;  36551.891;233;   7.489; 155.634;;; 309.918; 262.901;  14.164;   1.236;   0.945;   7.493;   7.481;   6.318;   4.018;   0.161;;;;;;;;;;;;;;;;;;
2016-03-09T14:12:48.818Z;0;1.7120e+01;0;     0.126;  1042.748;  37168.199; 0;  37153.570;  37168.199;  37678.602;  36635.852;233;   7.488; 155.699;;; 309.983; 262.965;  14.164;   1.232;   0.941;   7.492;   7.480;   6.317;   4.019;   0.161;;;;;;;;;;;;;;;;;;
2016-03-09T14:12:56.818Z;0;1.6750e+01;0;     0.130;  1042.748;  36762.746; 0;  36747.953;  36762.746;  37273.027;  36230.277;233;   7.488; 155.764;;; 310.047; 263.028;  14.165;   1.228;   0.937;   7.491;   7.479;   6.315;   4.020;   0.160;;;;;;;;;;;;;;;;;;
2016-03-09T14:13:04.818Z;0;1.6650e+01;0;     0.129;  1052.100;  36652.047; 0;  36636.945;  36652.047;  37166.770;  36114.668;233;   7.487; 155.828;;; 310.111; 263.091;  14.166;   1.223;   0.932;   7.491;   7.479;   6.314;   4.021;   0.160;;;;;;;;;;;;;;;;;;
2016-03-09T14:13:12.818Z;0;1.6700e+01;0;     0.128;  1052.100;  36716.598; 0;  36701.520;  36716.598;  37231.340;  36179.242;233;   7.486; 155.893;;; 310.176; 263.154;  14.166;   1.219;   0.928;   7.490;   7.478;   6.313;   4.022;   0.159;;;;;;;;;;;;;;;;;;
2016-03-09T14:13:20.818Z;0;1.6500e+01;0;     0.126;  1052.100;  36495.598; 0;  36480.430;  36495.598;  37010.273;  35958.172;233;   7.486; 155.958;;; 310.240; 263.218;  14.167;   1.215;   0.924;   7.489;   7.477;   6.312;   4.022;   0.159;;;;;;;;;;;;;;;;;;
2016-03-09T14:13:28.818Z;0;1.6980e+01;0;     0.119;  1052.100;  37016.410; 0;  37001.457;  37016.410;  37531.246;  36479.145;233;   7.485; 156.023;;; 310.304; 263.281;  14.168;   1.211;   0.920;   7.489;   7.477;   6.310;   4.023;   0.158;;;;;;;;;;;;;;;;;;
2016-03-09T14:13:36.818Z;0;1.6840e+01;0;     0.126;  1052.100;  36866.652; 0;  36851.637;  36866.652;  37381.441;  36329.340;233;   7.485; 156.087;;; 310.369; 263.344;  14.169;   1.207;   0.916;   7.488;   7.476;   6.309;   4.024;   0.158;;;;;;;;;;;;;;;;;;
2016-03-09T14:13:44.818Z;0;1.7190e+01;0;     0.131;  1052.100;  37247.477; 0;  37232.613;  37247.477;  37762.379;  36710.281;233;   7.484; 156.152;;; 310.433; 263.407;  14.169;   1.203;   0.911;   7.487;   7.476;   6.308;   4.025;   0.157;;;;;;;;;;;;;;;;;;
2016-03-09T14:13:52.818Z;0;1.6930e+01;0;     0.126;  1052.100;  36967.363; 0;  36952.391;  36967.363;  37482.184;  36430.082;233;   7.483; 156.217;;; 310.497; 263.470;  14.170;   1.198;   0.907;   7.487;   7.475;   6.306;   4.026;   0.156;;;;;;;;;;;;;;;;;;
2016-03-09T14:14:00.818Z;0;1.7160e+01;0;     0.138;  1051.540;  37217.816; 0;  37202.957;  37217.816;  37732.445;  36680.902;233;   7.483; 156.281;;; 310.561; 263.533;  14.171;   1.194;   0.903;   7.486;   7.474;   6.305;   4.026;   0.156;;;;;;;;;;;;;;;;;;
2016-03-09T14:14:08.818Z;0;1.7010e+01;0;     0.126;  1051.540;  37046.961; 0;  37032.035;  37046.961;  37561.535;  36509.996;233;   7.482; 156.346;;; 310.626; 263.596;  14.171;   1.190;   0.899;   7.485;   7.474;   6.304;   4.027;   0.155;;;;;;;;;;;;;;;;;;
2016-03-09T14:14:16.818Z;0;1.6330e+01;0;     0.093;  1051.540;  36302.133; 0;  36286.898;  36302.133;  36816.480;  35764.938;233;   7.481; 156.411;;; 310.690; 263.659;  14.172;   1.186;   0.895;   7.485;   7.473;   6.303;   4.028;   0.155;;;;;;;;;;;;;;;;;;
2016-03-09T14:14:24.818Z;0;1.6690e+01;0;     0.105;  1051.540;  36703.953; 0;  36688.887;  36703.953;  37218.426;  36166.883;233;   7.481; 156.476;;; 310.754; 263.722;  14.173;   1.182;   0.891;   7.484;   7.472;   6.301;   4.029;   0.154;;;;;;;;;;;;;;;;;;
2016-03-09T14:14:32.818Z;0;1.7170e+01;0;     0.124;  1051.540;  37223.031; 0;  37208.176;  37223.031;  37737.660;  36686.121;233;   7.480; 156.540;;; 310.819; 263.785;  14.173;   1.178;   0.886;   7.483;   7.472;   6.300;   4.030;   0.154;;;;;;;;;;;;;;;;;;
2016-03-09T14:14:40.818Z;0;1.7190e+01;0;     0.114;  1051.540;  37241.691; 0;  37226.844;  37241.691;  37756.324;  36704.785;233;   7.479; 156.605;;; 310.883; 263.848;  14.174;   1.173;   0.882;   7.483;   7.471;   6.299;   4.030;   0.153;;;;;;;;;;;;;;;;;;
2016-03-09T14:14:48.818Z;0;1.7190e+01;0;     0.109;  1051.540;  37251.477; 0;  37236.633;  37251.477;  37766.113;  36714.574;233;   7.479; 156.670;;; 310.947; 263.911;  14.175;   1.169;   0.878;   7.482;   7.470;   6.298;   4.031;   0.153;;;;;;;;;;;;;;;;;;
2016-03-09T14:14:56.818Z;0;1.7610e+01;0;     0.123;  1051.540;  37698.801; 0;  37684.133;  37698.801;  38213.570;  37162.031;233;   7.478; 156.734;;; 311.011; 263.974;  14.175;   1.165;   0.874;   7.481;   7.470;   6.296;   4.032;   0.152;;;;;;;;;;;;;;;;;;
2016-03-09T14:15:04.818Z;0;1.8830e+01;0;     0.124;  1036.448;  38984.031; 0;  38970.250;  38984.031;  39491.922;  38455.473;233;   7.477; 156.799;;; 311.076; 264.037;  14.176;   1.161;   0.870;   7.481;   7.469;   6.295;   4.033;   0.151;;;;;;;;;;;;;;;;;;
2016-03-09T14:15:12.817Z;0;1.8670e+01;0;     0.116;  1036.448;  38813.398; 0;  38799.559;  38813.398;  39321.242;  38284.793;233;   7.477; 156.864;;; 311.140; 264.100;  14.177;   1.157;   0.865;   7.480;   7.468;   6.294;   4.034;   0.151;;;;;;;;;;;;;;;;;;
2016-03-09T14:15:20.817Z;0;1.7730e+01;0;     0.124;  1036.448;  37826.547; 0;  37812.344;  37826.547;  38334.121;  37297.672;233;   7.476; 156.928;;; 311.204; 264.163;  14.178;   1.153;   0.861;   7.479;   7.468;   6.293;   4.034;   0.150;;;;;;;;;;;;;;;;;;
2016-03-09T14:15:28.817Z;0;1.7350e+01;0;     0.121;  1036.448;  37419.539; 0;  37405.184;  37419.539;  37926.996;  36890.547;233;   7.476; 156.993;;; 311.268; 264.226;  14.178;   1.148;   0.857;   7.479;   7.467;   6.291;   4.035;   0.150;;;;;;;;;;;;;;;;;;
2016-03-09T14:15:36.817Z;0;1.7030e+01;0;     0.132;  1036.448;  37074.777; 0;  37060.289;  37074.777;  37582.133;  36545.688;233;   7.475; 157.058;;; 311.333; 264.289;  14.179;   1.144;   0.853;   7.478;   7.467;   6.290;   4.036;   0.149;;;;;;;;;;;;;;;;;;
2016-03-09T14:15:44.817Z;0;1.7010e+01;0;     0.126;  1036.448;  37046.961; 0;  37032.461;  37046.961;  37554.309;  36517.863;233;   7.474; 157.122;;; 311.397; 264.352;  14.180;   1.140;   0.849;   7.477;   7.466;   6.289;   4.037;   0.149;;;;;;;;;;;;;;;;;;
2016-03-09T14:15:52.817Z;0;1.7150e+01;0;     0.119;  1036.448;  37202.301; 0;  37187.859;  37202.301;  37709.695;  36673.246;233;   7.474; 157.187;;; 311.461; 264.415;  14.180;   1.136;   0.844;   7.477;   7.465;   6.288;   4.038;   0.148;;;;;;;;;;;;;;;;;;
2016-03-09T14:16:00.817Z;0;1.7340e+01;0;     0.124;  1053.780;  37407.453; 0;  37392.609;  37407.453;  37923.211;  36869.430;233;   7.473; 157.252;;; 311.525; 264.477;  14.181;   1.132;   0.840;   7.476;   7.465;   6.286;   4.038;   0.147;;;;;;;;;;;;;;;;;;
2016-03-09T14:16:08.817Z;0;1.7290e+01;0;     0.121;  1053.780;  37351.387; 0;  37336.520;  37351.387;  37867.125;  36813.348;233;   7.472; 157.316;;; 311.590; 264.540;  14.182;   1.128;   0.836;   7.475;   7.464;   6.285;   4.039;   0.147;;;;;;;;;;;;;;;;;;
2016-03-09T14:16:16.817Z;0;1.7370e+01;0;     0.124;  1053.780;  37441.820; 0;  37426.988;  37441.820;  37957.586;  36903.809;233;   7.472; 157.381;;; 311.654; 264.603;  14.182;   1.123;   0.832;   7.475;   7.463;   6.284;   4.040;   0.146;;;;;;;;;;;;;;;;;;
2016-03-09T14:16:24.817Z;0;1.7390e+01;0;     0.118;  1053.780;  37458.004; 0;  37443.180;  37458.004;  37973.773;  36919.996;233;   7.471; 157.446;;; 311.718; 264.666;  14.183;   1.119;   0.827;   7.474;   7.463;   6.282;   4.041;   0.146;;;;;;;;;;;;;;;;;;
2016-03-09T14:16:32.817Z;0;1.7450e+01;0;     0.118;  1053.780;  37522.363; 0;  37507.562;  37522.363;  38038.152;  36984.375;233;   7.470; 157.510;;; 311.783; 264.728;  14.184;   1.115;   0.823;   7.473;   7.462;   6.281;   4.042;   0.145;;;;;;;;;;;;;;;;;;
2016-03-09T14:16:40.817Z;0;1.8990e+01;0;     0.117;  1053.780;  39151.504; 0;  39137.320;  39151.504;  39667.758;  38613.977;233;   7.470; 157.575;;; 311.847; 264.791;  14.184;   1.111;   0.819;   7.473;   7.461;   6.280;   4.042;   0.145;;;;;;;;;;;;;;;;;;
2016-03-09T14:16:48.817Z;0;2.0060e+01;0;     0.123;  1053.780;  40234.598; 0;  40220.797;  40234.598;  40751.137;  39697.355;233;   7.469; 157.640;;; 311.911; 264.854;  14.185;   1.107;   0.815;   7.472;   7.461;   6.279;   4.043;   0.144;;;;;;;;;;;;;;;;;;
2016-03-09T14:16:56.817Z;0;1.9110e+01;0;     0.106;  1053.780;  39273.027; 0;  39258.887;  39273.027;  39789.312;  38735.531;233;   7.468; 157.704;;; 311.975; 264.916;  14.186;   1.102;   0.811;   7.471;   7.460;   6.277;   4.044;   0.144;;;;;;;;;;;;;;;;;;
2016-03-09T14:17:12.817Z;0;1.7680e+01;0;     0.118;  1043.672;  37776.141; 0;  37761.719;  37776.141;  38287.164;  37243.488;233;   7.467; 157.834;;; 312.104; 265.042;  14.187;   1.094;   0.802;   7.470;   7.459;   6.275;   4.046;   0.142;;;;;;;;;;;;;;;;;;
2016-03-09T14:17:20.817Z;0;1.7610e+01;0;     0.116;  1043.672;  37693.645; 0;  37679.191;  37693.645;  38204.641;  37160.969;233;   7.467; 157.898;;; 312.168; 265.104;  14.188;   1.090;   0.798;   7.469;   7.458;   6.274;   4.046;   0.142;;;;;;;;;;;;;;;;;;
2016-03-09T14:17:28.817Z;0;1.7510e+01;0;     0.120;  1043.672;  37589.465; 0;  37574.973;  37589.465;  38100.434;  37056.762;233;   7.466; 157.963;;; 312.232; 265.167;  14.189;   1.086;   0.794;   7.469;   7.458;   6.272;   4.047;   0.141;;;;;;;;;;;;;;;;;;
2016-03-09T14:17:36.817Z;0;1.7260e+01;0;     0.127;  1043.672;  37317.555; 0;  37302.957;  37317.555;  37828.441;  36784.770;233;   7.465; 158.028;;; 312.296; 265.229;  14.189;   1.082;   0.790;   7.468;   7.457;   6.271;   4.048;   0.141;;;;;;;;;;;;;;;;;;
2016-03-09T14:17:44.816Z;0;1.7290e+01;0;     0.110;  1043.672;  37356.730; 0;  37342.148;  37356.730;  37867.629;  36823.957;233;   7.465; 158.092;;; 312.361; 265.292;  14.190;   1.077;   0.785;   7.467;   7.456;   6.270;   4.049;   0.140;;;;;;;;;;;;;;;;;;
2016-03-09T14:17:52.816Z;0;1.7240e+01;0;     0.113;  1043.672;  37303.680; 0;  37289.078;  37303.680;  37814.562;  36770.891;233;   7.464; 158.157;;; 312.425; 265.354;  14.191;   1.073;   0.781;   7.467;   7.456;   6.269;   4.050;   0.140;;;;;;;;;;;;;;;;;;
2016-03-09T14:18:00.816Z;0;1.7470e+01;0;     0.121;  1063.216;  37546.910; 0;  37531.855;  37546.910;  38067.227;  37004.012;233;   7.463; 158.222;;; 312.489; 265.417;  14.191;   1.069;   0.777;   7.466;   7.455;   6.267;   4.050;   0.139;;;;;;;;;;;;;;;;;;
2016-03-09T14:18:08.816Z;0;1.7530e+01;0;     0.127;  1063.216;  37618.371; 0;  37603.344;  37618.371;  38138.707;  37075.492;233;   7.463; 158.286;;; 312.553; 265.479;  14.192;   1.065;   0.773;   7.465;   7.454;   6.266;   4.051;   0.139;;;;;;;;;;;;;;;;;;
2016-03-09T14:18:16.816Z;0;1.7380e+01;0;     0.116;  1063.216;  37455.895; 0;  37440.801;  37455.895;  37976.184;  36912.969;233;   7.462; 158.351;;; 312.618; 265.542;  14.193;   1.061;   0.769;   7.465;   7.454;   6.265;   4.052;   0.138;;;;;;;;;;;;;;;;;;
2016-03-09T14:18:24.816Z;0;1.7580e+01;0;     0.118;  1063.216;  37662.629; 0;  37647.617;  37662.629;  38182.980;  37119.766;233;   7.461; 158.415;;; 312.682; 265.604;  14.194;   1.056;   0.764;   7.464;   7.453;   6.263;   4.053;   0.137;;;;;;;;;;;;;;;;;;
2016-03-09T14:18:32.816Z;0;1.7880e+01;0;     0.122;  1063.216;  37981.422; 0;  37966.539;  37981.422;  38501.867;  37438.652;233;   7.461; 158.480;;; 312.746; 265.667;  14.194;   1.052;   0.760;   7.463;   7.453;   6.262;   4.054;   0.137;;;;;;;;;;;;;;;;;;
2016-03-09T14:18:40.816Z;0;1.7580e+01;0;     0.119;  1063.216;  37668.027; 0;  37653.020;  37668.027;  38188.379;  37125.164;233;   7.460; 158.545;;; 312.810; 265.729;  14.195;   1.048;   0.756;   7.463;   7.452;   6.261;   4.054;   0.136;;;;;;;;;;;;;;;;;;
2016-03-09T14:18:48.816Z;0;1.7260e+01;0;     0.112;  1063.216;  37320.344; 0;  37305.195;  37320.344;  37840.590;  36777.375;233;   7.459; 158.609;;; 312.875; 265.792;  14.196;   1.044;   0.752;   7.462;   7.451;   6.260;   4.055;   0.136;;;;;;;;;;;;;;;;;;
2016-03-09T14:18:56.816Z;0;1.6200e+01;0;     0.129;  1063.216;  36156.516; 0;  36140.879;  36156.516;  36676.398;  35613.180;233;   7.459; 158.674;;; 312.939; 265.854;  14.196;   1.040;   0.747;   7.461;   7.451;   6.258;   4.056;   0.135;;;;;;;;;;;;;;;;;;
2016-03-09T14:19:04.816Z;0;1.7220e+01;0;     0.116;  1064.588;  37280.645; 0;  37265.441;  37280.645;  37801.535;  36736.949;233;   7.458; 158.739;;; 313.003; 265.916;  14.197;   1.035;   0.743;   7.461;   7.450;   6.257;   4.057;   0.135;;;;;;;;;;;;;;;;;;
2016-03-09T14:19:12.816Z;0;1.7380e+01;0;     0.126;  1064.588;  37451.117; 0;  37435.984;  37451.117;  37972.062;  36907.473;233;   7.458; 158.803;;; 313.067; 265.979;  14.198;   1.031;   0.739;   7.460;   7.449;   6.256;   4.058;   0.134;;;;;;;;;;;;;;;;;;
2016-03-09T14:19:20.816Z;0;1.7430e+01;0;     0.123;  1064.588;  37507.344; 0;  37492.230;  37507.344;  38028.305;  36963.715;233;   7.457; 158.868;;; 313.131; 266.041;  14.198;   1.027;   0.735;   7.459;   7.449;   6.255;   4.058;   0.134;;;;;;;;;;;;;;;;;;
2016-03-09T14:19:28.816Z;0;1.7630e+01;0;     0.125;  1064.588;  37724.242; 0;  37709.219;  37724.242;  38245.270;  37180.680;233;   7.456; 158.933;;; 313.196; 266.103;  14.199;   1.023;   0.731;   7.459;   7.448;   6.253;   4.059;   0.133;;;;;;;;;;;;;;;;;;
2016-03-09T14:19:36.816Z;0;1.7330e+01;0;     0.125;  1064.588;  37401.742; 0;  37386.590;  37401.742;  37922.672;  36858.082;233;   7.456; 158.997;;; 313.260; 266.166;  14.200;   1.019;   0.726;   7.458;   7.447;   6.252;   4.060;   0.132;;;;;;;;;;;;;;;;;;
2016-03-09T14:19:44.816Z;0;1.8290e+01;0;     0.131;  1064.588;  38420.148; 0;  38405.395;  38420.148;  38941.379;  37876.789;233;   7.455; 159.062;;; 313.324; 266.228;  14.200;   1.014;   0.722;   7.457;   7.447;   6.251;   4.061;   0.132;;;;;;;;;;;;;;;;;;
2016-03-09T14:19:52.816Z;0;1.7720e+01;0;     0.118;  1064.588;  37819.391; 0;  37804.402;  37819.391;  38340.445;  37275.855;233;   7.454; 159.126;;; 313.388; 266.290;  14.201;   1.010;   0.718;   7.457;   7.446;   6.249;   4.062;   0.131;;;;;;;;;;;;;;;;;;
2016-03-09T14:20:00.816Z;0;1.7650e+01;0;     0.117;  1070.944;  37744.555; 0;  37729.359;  37744.555;  38268.629;  37197.688;233;   7.454; 159.191;;; 313.453; 266.352;  14.202;   1.006;   0.714;   7.456;   7.445;   6.248;   4.062;   0.131;;;;;;;;;;;;;;;;;;
2016-03-09T14:20:08.816Z;0;1.7350e+01;0;     0.110;  1070.944;  37417.758; 0;  37402.430;  37417.758;  37941.734;  36870.789;233;   7.453; 159.256;;; 313.517; 266.416;  14.203;   1.002;   0.709;   7.455;   7.445;   6.247;   4.063;   0.130;;;;;;;;;;;;;;;;;;
2016-03-09T14:20:16.815Z;0;1.7440e+01;0;     0.132;  1070.944;  37516.918; 0;  37501.629;  37516.918;  38040.926;  36969.980;233;   7.452; 159.320;;; 313.581; 266.480;  14.203;   0.998;   0.705;   7.455;   7.444;   6.246;   4.064;   0.130;;;;;;;;;;;;;;;;;;
2016-03-09T14:20:24.815Z;0;1.7220e+01;0;     0.112;  1070.944;  37275.805; 0;  37260.418;  37275.805;  37799.738;  36728.793;233;   7.452; 159.385;;; 313.645; 266.543;  14.204;   0.993;   0.701;   7.454;   7.444;   6.244;   4.065;   0.129;;;;;;;;;;;;;;;;;;
2016-03-09T14:20:32.815Z;0;1.7350e+01;0;     0.118;  1070.944;  37421.922; 0;  37406.594;  37421.922;  37945.898;  36874.953;233;   7.451; 159.449;;; 313.709; 266.607;  14.205;   0.989;   0.697;   7.453;   7.443;   6.243;   4.065;   0.129;;;;;;;;;;;;;;;;;;
2016-03-09T14:20:40.815Z;0;1.7500e+01;0;     0.117;  1070.944;  37585.348; 0;  37570.086;  37585.348;  38109.375;  37038.430;233;   7.451; 159.514;;; 313.773; 266.670;  14.205;   0.985;   0.693;   7.453;   7.442;   6.242;   4.066;   0.128;;;;;;;;;;;;;;;;;;
2016-03-09T14:20:48.815Z;0;1.7330e+01;0;     0.127;  1070.944;  37401.910; 0;  37386.574;  37401.910;  37925.883;  36854.938;233;   7.450; 159.579;;; 313.838; 266.734;  14.206;   0.981;   0.688;   7.452;   7.442;   6.241;   4.067;   0.127;;;;;;;;;;;;;;;;;;
2016-03-09T14:20:56.815Z;0;1.7360e+01;0;     0.118;  1070.944;  37425.508; 0;  37410.184;  37425.508;  37949.484;  36878.543;233;   7.449; 159.643;;; 313.902; 266.798;  14.207;   0.977;   0.684;   7.451;   7.441;   6.239;   4.068;   0.127;;;;;;;;;;;;;;;;;;
2016-03-09T14:21:04.815Z;0;1.8550e+01;0;     0.121;  1059.464;  38695.051; 0;  38680.543;  38695.051;  39213.902;  38154.438;233;   7.449; 159.708;;; 313.966; 266.861;  14.207;   0.972;   0.680;   7.451;   7.440;   6.238;   4.069;   0.126;;;;;;;;;;;;;;;;;;
2016-03-09T14:21:12.815Z;0;1.8450e+01;0;     0.130;  1059.464;  38586.734; 0;  38572.188;  38586.734;  39105.555;  38046.094;233;   7.448; 159.773;;; 314.030; 266.925;  14.208;   0.968;   0.676;   7.450;   7.440;   6.237;   4.069;   0.126;;;;;;;;;;;;;;;;;;
2016-03-09T14:21:20.815Z;0;1.7570e+01;0;     0.114;  1059.464;  37651.457; 0;  37636.547;  37651.457;  38170.008;  37110.543;233;   7.447; 159.837;;; 314.094; 266.989;  14.209;   0.964;   0.671;   7.449;   7.439;   6.236;   4.070;   0.125;;;;;;;;;;;;;;;;;;
2016-03-09T14:21:28.815Z;0;1.7770e+01;0;     0.135;  1059.464;  37869.277; 0;  37854.453;  37869.277;  38387.891;  37328.430;233;   7.447; 159.902;;; 314.159; 267.052;  14.210;   0.960;   0.667;   7.449;   7.438;   6.234;   4.071;   0.125;;;;;;;;;;;;;;;;;;
2016-03-09T14:21:36.815Z;0;1.7600e+01;0;     0.120;  1059.464;  37684.102; 0;  37669.207;  37684.102;  38202.664;  37143.199;233;   7.446; 159.966;;; 314.223; 267.116;  14.210;   0.956;   0.663;   7.448;   7.438;   6.233;   4.072;   0.124;;;;;;;;;;;;;;;;;;
2016-03-09T14:21:44.815Z;0;1.7760e+01;0;     0.136;  1059.464;  37861.816; 0;  37846.992;  37861.816;  38380.430;  37320.965;233;   7.445; 160.031;;; 314.287; 267.180;  14.211;   0.951;   0.659;   7.447;   7.437;   6.232;   4.073;   0.124;;;;;;;;;;;;;;;;;;
2016-03-09T14:21:52.815Z;0;1.7470e+01;0;     0.117;  1059.464;  37545.879; 0;  37530.930;  37545.879;  38064.398;  37004.934;233;   7.445; 160.096;;; 314.351; 267.244;  14.212;   0.947;   0.654;   7.447;   7.437;   6.230;   4.073;   0.123;;;;;;;;;;;;;;;;;;
2016-03-09T14:22:00.815Z;0;1.7460e+01;0;     0.122;  1071.364;  37539.441; 0;  37524.148;  37539.441;  38063.656;  36992.293;233;   7.444; 160.160;;; 314.415; 267.307;  14.212;   0.943;   0.650;   7.446;   7.436;   6.229;   4.074;   0.122;;;;;;;;;;;;;;;;;;
2016-03-09T14:22:08.815Z;0;1.7180e+01;0;     0.109;  1071.364;  37240.648; 0;  37225.234;  37240.648;  37764.770;  36693.406;233;   7.443; 160.225;;; 314.480; 267.371;  14.213;   0.939;   0.646;   7.445;   7.435;   6.228;   4.075;   0.122;;;;;;;;;;;;;;;;;;
2016-03-09T14:22:16.815Z;0;1.7440e+01;0;     0.114;  1071.364;  37513.570; 0;  37498.270;  37513.570;  38037.777;  36966.414;233;   7.443; 160.289;;; 314.544; 267.435;  14.214;   0.935;   0.642;   7.445;   7.435;   6.227;   4.076;   0.121;;;;;;;;;;;;;;;;;;